[[{"header":{"parameterUnit":"m.s-1","parameterCategory":2,"la1":30.2991,"la2":30.254,"lo1":-89.0895,"lo2":-89.0444,"dy":0.0017,"dx":0.0017,"nx":28,"ny":28,"refTime":"2024-04-08T09:00:00:Z","depth":"0","parameterNumber":2,"parameterNumberName":"U-component_of_CURRENTS"},"data":[0,0,0,0,0,0,0,0,0,0,0,0,0,0,0,0,0,0,0,0,0,0,0,0,0,0,0,0,0,0,0,0,0,0,0,0,0,0,0,0,0,0,0,0,0,0,0,0,0,0,0,0,0,0,0,0,0,0,-0.2181,-0.2181,0,-0.2195,-0.2195,-0.2194,-0.2157,-0.2156,-0.2156,-0.2155,-0.2114,-0.2113,-0.2113,0,0,0,0,0,0,0,0,0,0,0,0,0,-0.2094,-0.2096,-0.2181,-0.2181,-0.2182,-0.2195,-0.2195,-0.2194,-0.2157,-0.2156,-0.2156,-0.2155,-0.2114,-0.2114,-0.2113,0,0,0,0,0,0,0,0,0,0,0,0,0,-0.2118,-0.2096,-0.2181,-0.2169,-0.2168,-0.2195,-0.2195,-0.2194,-0.2157,-0.2156,-0.2155,-0.2154,-0.2114,-0.2114,-0.2113,-0.2129,0,0,-0.2111,-0.2111,0,0,0,0,0,0,0,0,-0.2116,-0.212,-0.217,-0.217,-0.2169,-0.2178,-0.2149,-0.2172,-0.2158,-0.2156,-0.2155,-0.2154,-0.2134,-0.2132,-0.213,-0.2127,-0.2126,-0.2111,-0.211,-0.211,-0.211,0,0,0,0,0,0,0,-0.2115,-0.2119,-0.2181,-0.2171,-0.217,-0.2154,-0.2156,-0.2153,-0.2146,-0.2156,-0.2155,-0.2165,-0.2133,-0.2131,-0.2129,-0.2125,-0.2111,-0.211,-0.211,-0.211,-0.2117,-0.2118,0,0,0,0,0,0,-0.2127,-0.2118,-0.2181,-0.2182,-0.2146,-0.2157,-0.2159,-0.2172,-0.2147,-0.2144,-0.2166,-0.2163,-0.2133,-0.213,-0.2127,-0.2141,-0.211,-0.2109,-0.2109,-0.2116,-0.2117,-0.2118,0,0,0,0,0,0,-0.2125,-0.2132,-0.218,-0.2154,-0.216,-0.216,-0.2175,-0.2173,-0.2172,-0.2156,-0.2151,-0.2168,-0.2132,-0.2128,-0.2133,-0.2139,-0.2109,-0.2109,-0.2116,-0.2117,-0.2117,-0.217,0,0,0,0,0,0,-0.2122,-0.2131,-0.214,-0.2155,-0.2162,-0.2207,-0.2176,-0.2174,-0.2183,-0.2179,-0.2156,-0.2151,-0.2131,-0.2135,-0.2133,-0.2137,-0.2108,-0.2115,-0.2116,-0.2117,-0.2168,-0.2173,-0.2177,0,0,0,0,0,-0.2119,-0.2141,-0.214,-0.2148,-0.2175,-0.2209,-0.2211,-0.2203,-0.2184,-0.2195,-0.2177,-0.2152,-0.2139,-0.2135,-0.2133,-0.2137,-0.2114,-0.2116,-0.2117,-0.2165,-0.2172,-0.2177,0,0,0,0,0,0,-0.2106,-0.214,-0.2139,-0.2169,-0.2193,-0.2205,-0.2211,-0.221,-0.2205,-0.2194,-0.2169,-0.2164,-0.2166,-0.215,-0.2146,-0.2142,-0.2119,-0.212,-0.2157,-0.2163,-0.2167,-0.2161,-0.2107,0,0,0,0,0,-0.2111,-0.2131,-0.2164,-0.2184,-0.2198,-0.2204,-0.2214,-0.2216,-0.2218,-0.2214,-0.2201,-0.2182,-0.2171,-0.2166,-0.2156,-0.2163,-0.2155,-0.2161,-0.2166,-0.217,-0.2163,-0.2168,-0.2173,-0.2122,-0.2122,-0.2122,0,0,-0.2109,-0.2131,-0.2141,-0.2182,-0.2191,-0.2217,-0.2206,-0.2229,-0.224,-0.2211,-0.2214,-0.2202,-0.2178,-0.2181,-0.2179,-0.2167,-0.2184,-0.2172,-0.2175,-0.2166,-0.217,-0.2175,-0.218,-0.2123,-0.2123,-0.2123,0,0,-0.2118,-0.2138,-0.2157,-0.2184,-0.2216,-0.2226,-0.2238,-0.2259,-0.2257,-0.2273,-0.2246,-0.2241,-0.2231,-0.2215,-0.2203,-0.223,-0.221,-0.2225,-0.2243,-0.2249,-0.2254,-0.2257,-0.2272,-0.2276,-0.2226,-0.2226,-0.2226,0,-0.2113,-0.2142,-0.2168,-0.2198,-0.2216,-0.2233,-0.2257,-0.2268,-0.2287,-0.2292,-0.2278,-0.2265,-0.2243,-0.2243,-0.2242,-0.2239,-0.2244,-0.2225,-0.2256,-0.2259,-0.2262,-0.2276,-0.228,-0.2229,-0.2228,-0.2228,-0.2228,0,-0.2136,-0.2162,-0.2177,-0.2215,-0.2243,-0.2268,-0.2298,-0.2318,-0.2316,-0.2325,-0.2332,-0.2311,-0.23,-0.2294,-0.2271,-0.2279,-0.2278,-0.2264,-0.2243,-0.227,-0.2284,-0.2287,-0.2233,-0.2232,-0.2231,-0.223,0,0,-0.2105,-0.2177,-0.2178,-0.2202,-0.2253,-0.2279,-0.231,-0.2343,-0.2365,-0.2369,-0.239,-0.2361,-0.2352,-0.2338,-0.2317,-0.2315,-0.2338,-0.2296,-0.2295,-0.2314,-0.2364,-0.2363,-0.2366,-0.2334,-0.2335,-0.2335,-0.2373,0,-0.2104,-0.2157,-0.2193,-0.2236,-0.2265,-0.2304,-0.2338,-0.2373,-0.2392,-0.2423,-0.2406,-0.2412,-0.237,-0.2366,-0.2359,-0.2344,-0.2346,-0.2329,-0.2331,-0.2331,-0.2329,-0.237,-0.232,-0.2349,-0.2376,-0.2376,-0.2377,0,-0.2096,-0.2139,-0.2182,-0.2256,-0.2272,-0.2302,-0.2359,-0.2393,-0.2444,-0.246,-0.2467,-0.2465,-0.2458,-0.242,-0.2407,-0.2402,-0.238,-0.2368,-0.2369,-0.2347,-0.2336,-0.2321,-0.2353,-0.2341,-0.2381,-0.2381,-0.2381,0,-0.2048,-0.2121,-0.2152,-0.2178,-0.227,-0.2293,-0.2332,-0.2395,-0.2432,-0.2477,-0.2508,-0.2509,-0.2509,-0.2487,-0.245,-0.2433,-0.2449,-0.2424,-0.2407,-0.2407,-0.2352,-0.2346,-0.2369,-0.2415,-0.2415,-0.2415,-0.2415,0,-0.2025,-0.2051,-0.2133,-0.2157,-0.2205,-0.2271,-0.2324,-0.2369,-0.2441,-0.2493,-0.2512,-0.2545,-0.2524,-0.2531,-0.2488,-0.2466,-0.2478,-0.2417,-0.2417,-0.2371,-0.2367,-0.2341,-0.2339,-0.2416,-0.2416,-0.2416,-0.2416,0,-0.1968,-0.202,-0.2069,-0.2159,-0.2184,-0.2215,-0.2315,-0.2362,-0.243,-0.2499,-0.2513,-0.2574,-0.2589,-0.2577,-0.2557,-0.2517,-0.2465,-0.2478,-0.2432,-0.2426,-0.2391,-0.2394,-0.2385,-0.2325,-0.2471,-0.2471,-0.2472,0,-0.1945,-0.1961,-0.2052,-0.208,-0.2118,-0.2181,-0.2233,-0.2331,-0.2388,-0.2511,-0.2541,-0.2595,-0.2627,-0.2622,-0.257,-0.2532,-0.248,-0.2456,-0.2403,-0.2393,-0.2396,-0.2371,-0.2318,-0.2358,-0.2358,-0.2357,-0.2357,0,-0.1898,-0.1926,-0.1969,-0.2026,-0.2076,-0.2136,-0.2214,-0.2263,-0.2387,-0.246,-0.2551,-0.2591,-0.263,-0.2591,-0.2557,-0.2505,-0.2415,-0.2443,-0.2437,-0.2318,-0.2285,-0.2226,-0.2342,-0.2351,-0.2352,-0.2352,-0.2352,-0.2353,-0.1848,-0.186,-0.1908,-0.1955,-0.201,-0.2053,-0.207,-0.2183,-0.226,-0.2357,-0.2477,-0.2539,-0.2584,-0.2536,-0.2498,-0.2415,-0.2386,-0.2334,-0.2344,-0.2323,-0.2247,-0.2362,-0.2367,-0.2368,-0.2368,-0.2369,-0.2369,0,-0.1777,-0.1794,-0.1834,-0.1878,-0.1894,-0.195,-0.2027,-0.2032,-0.2092,-0.2248,-0.2331,-0.2458,-0.2445,-0.2469,-0.2427,-0.2339,-0.2249,-0.227,-0.2213,-0.2163,-0.227,-0.2246,-0.222,-0.222,-0.222,-0.222,-0.222,-0.222,-0.1735,-0.1735,-0.1756,-0.1738,-0.1761,-0.1732,-0.1743,-0.1778,-0.186,-0.1971,-0.2107,-0.2262,-0.2305,-0.2516,-0.243,-0.2321,-0.2226,-0.2167,-0.2146,-0.2229,-0.2235,-0.2241,-0.2217,-0.2185,-0.2185,-0.1974,-0.1973,-0.1972]},{"header":{"parameterUnit":"m.s-1","parameterCategory":2,"la1":30.2991,"la2":30.254,"lo1":-89.0895,"lo2":-89.0444,"dy":0.0017,"dx":0.0017,"nx":28,"ny":28,"refTime":"2024-04-08T09:00:00:Z","depth":"0","parameterNumber":3,"parameterNumberName":"V-component_of_CURRENTS"},"data":[0,0,0,0,0,0,0,0,0,0,0,0,0,0,0,0,0,0,0,0,0,0,0,0,0,0,0,0,0,0,0,0,0,0,0,0,0,0,0,0,0,0,0,0,0,0,0,0,0,0,0,0,0,0,0,0,0,0,-0.0112,-0.0111,0,-0.0044,-0.0043,-0.0042,-0.0004,-0.0004,-0.0004,-0.0004,0.0063,0.0065,0.0067,0,0,0,0,0,0,0,0,0,0,0,0,0,-0.0166,-0.0166,-0.0112,-0.0111,-0.011,-0.0044,-0.0043,-0.0042,-0.0004,-0.0004,-0.0004,-0.0004,0.0063,0.0065,0.0067,0,0,0,0,0,0,0,0,0,0,0,0,0,-0.0125,-0.0166,-0.0112,-0.0083,-0.008,-0.0044,-0.0043,-0.0042,-0.0004,-0.0004,-0.0004,-0.0004,0.0062,0.0065,0.0067,0.0078,0,0,0.0075,0.0076,0,0,0,0,0,0,0,0,-0.0128,-0.0123,-0.0088,-0.0085,-0.0081,-0.0032,-0.0037,-0.0002,-0.0004,-0.0033,-0.0004,-0.0004,0.0031,0.0036,0.0048,0.0081,0.0084,0.0075,0.0076,0.0077,0.0078,0,0,0,0,0,0,0,-0.0131,-0.0126,-0.0085,-0.0087,-0.0083,-0.0059,-0.0053,-0.003,-0.0003,-0.0031,-0.0028,-0.002,0.0033,0.0046,0.005,0.0085,0.0075,0.0077,0.0078,0.0079,0.0163,0.0163,0,0,0,0,0,0,-0.0141,-0.0129,-0.0087,-0.0083,-0.0104,-0.0058,-0.0052,-0.0048,-0.0003,0.0004,-0.002,-0.0018,0.0042,0.0047,0.0053,0.0084,0.0077,0.008,0.0081,0.0162,0.0163,0.0163,0,0,0,0,0,0,-0.0142,-0.0138,-0.009,-0.0104,-0.0096,-0.0058,-0.0054,-0.0047,-0.0034,0.0005,0.0012,-0.0014,0.0042,0.0049,0.0075,0.0086,0.0081,0.0083,0.0161,0.0162,0.0163,0.0136,0,0,0,0,0,0,-0.0144,-0.0139,-0.0144,-0.0105,-0.0096,-0.0077,-0.0054,-0.0046,-0.0029,-0.0026,0.0013,0.0019,0.0043,0.0072,0.0078,0.0089,0.0085,0.016,0.0161,0.0163,0.0136,0.0136,0.0136,0,0,0,0,0,-0.0147,-0.0159,-0.0145,-0.014,-0.0103,-0.0077,-0.007,-0.0042,-0.0029,-0.0028,0.0004,0.0018,0.0085,0.0074,0.0081,0.0094,0.0159,0.0161,0.0163,0.0136,0.0136,0.0136,0,0,0,0,0,0,-0.0189,-0.0155,-0.0139,-0.0141,-0.0113,-0.0071,-0.007,-0.0045,-0.0019,-0.0016,0.0022,0.0031,0.006,0.008,0.0067,0.0124,0.0127,0.013,0.0104,0.0105,0.0105,0.0091,0.0087,0,0,0,0,0,-0.02,-0.02,-0.0159,-0.0162,-0.015,-0.0109,-0.0096,-0.0074,-0.0042,-0.003,-0.0001,0.0036,0.0073,0.009,0.0119,0.0144,0.0172,0.016,0.016,0.016,0.0155,0.0208,0.0212,0.0169,0.0169,0.0169,0,0,-0.0216,-0.0199,-0.0198,-0.017,-0.0148,-0.0137,-0.0102,-0.0086,-0.0069,-0.0028,-0.0005,0.0032,0.0079,0.0111,0.0127,0.0129,0.0188,0.0162,0.0161,0.0157,0.021,0.0214,0.0218,0.017,0.017,0.017,0,0,-0.0253,-0.0234,-0.0246,-0.0222,-0.019,-0.0164,-0.0161,-0.0118,-0.0092,-0.0063,-0.0021,0.0022,0.0065,0.011,0.0137,0.0155,0.0185,0.0166,0.0157,0.0207,0.0211,0.0215,0.0257,0.0265,0.0168,0.0168,0.0168,0,-0.0274,-0.0279,-0.0245,-0.0244,-0.0229,-0.0179,-0.018,-0.0146,-0.0098,-0.0071,-0.0063,0.003,0.0068,0.0128,0.0138,0.0155,0.0183,0.015,0.0206,0.021,0.0214,0.0257,0.0266,0.0167,0.0167,0.0167,0.0167,0,-0.031,-0.0312,-0.0317,-0.0298,-0.0278,-0.0272,-0.0218,-0.0192,-0.0156,-0.0113,-0.0051,0.0009,0.0065,0.0093,0.012,0.0176,0.0186,0.0197,0.0201,0.0217,0.0262,0.0271,0.0165,0.0166,0.0166,0.0166,0,0,-0.0361,-0.0347,-0.0347,-0.0349,-0.0304,-0.0295,-0.0261,-0.0213,-0.019,-0.0127,-0.0086,-0.0003,0.0037,0.0071,0.0122,0.0172,0.0231,0.0192,0.0195,0.0225,0.0337,0.0385,0.04,0.0249,0.025,0.0251,0.0357,0,-0.0398,-0.0424,-0.0393,-0.0405,-0.0413,-0.0349,-0.0326,-0.027,-0.0213,-0.0163,-0.0069,-0.0021,0.0029,0.0055,0.0117,0.0201,0.0254,0.02,0.0325,0.0329,0.0363,0.0413,0.0471,0.0573,0.0366,0.0368,0.0369,0,-0.0436,-0.0452,-0.0477,-0.0464,-0.0459,-0.0453,-0.0401,-0.037,-0.0274,-0.0226,-0.0144,-0.0075,0.0024,0.005,0.0209,0.0171,0.0248,0.0313,0.0319,0.0378,0.0395,0.0526,0.0599,0.0773,0.0384,0.0383,0.0382,0,-0.0498,-0.0504,-0.0532,-0.0525,-0.0503,-0.0493,-0.0474,-0.0393,-0.0366,-0.0267,-0.0236,-0.0106,-0.0044,0.0075,0.0226,0.0214,0.0393,0.0394,0.0512,0.0516,0.0598,0.0607,0.0848,0.0497,0.0497,0.0496,0.0496,0,-0.0548,-0.0567,-0.0568,-0.0584,-0.0614,-0.0561,-0.0562,-0.0516,-0.0442,-0.041,-0.0282,-0.0227,-0.0037,0.0095,0.0219,0.0409,0.0395,0.0524,0.0555,0.0591,0.0598,0.0778,0.0836,0.05,0.0499,0.0499,0.0498,0,-0.0607,-0.0603,-0.0643,-0.0644,-0.0649,-0.0669,-0.0646,-0.064,-0.0556,-0.0508,-0.0481,-0.0308,-0.012,0.0077,0.0287,0.0403,0.0679,0.0632,0.0662,0.0695,0.0958,0.101,0.1235,0.1315,0.078,0.0782,0.0784,0,-0.0639,-0.0668,-0.0709,-0.0746,-0.0752,-0.0771,-0.0786,-0.0715,-0.0697,-0.0557,-0.0541,-0.0342,-0.0185,0.0157,0.0418,0.0674,0.0779,0.0849,0.0843,0.1004,0.1084,0.11,0.1151,0.0943,0.0946,0.0948,0.095,0,-0.0707,-0.0722,-0.0762,-0.0851,-0.0888,-0.0918,-0.0922,-0.0923,-0.082,-0.0752,-0.0622,-0.0481,-0.0097,0.0256,0.061,0.0751,0.0985,0.0903,0.1077,0.1246,0.1272,0.1353,0.0831,0.097,0.0968,0.0967,0.0965,0.0965,-0.0757,-0.0811,-0.0877,-0.0956,-0.1006,-0.1052,-0.108,-0.1045,-0.1007,-0.0872,-0.0701,-0.0446,0.0127,0.0655,0.0833,0.125,0.1165,0.1353,0.1405,0.1407,0.149,0.1007,0.1173,0.1172,0.1171,0.1171,0.117,0,-0.0821,-0.0887,-0.0978,-0.1068,-0.1145,-0.114,-0.1163,-0.1159,-0.1116,-0.0906,-0.0728,-0.0093,0.0446,0.0943,0.156,0.1755,0.177,0.1837,0.1894,0.1922,0.1523,0.1537,0.1781,0.1781,0.1781,0.1781,0.1781,0.178,-0.0856,-0.0965,-0.1021,-0.1174,-0.1232,-0.1308,-0.1322,-0.1282,-0.1143,-0.0802,-0.0437,-0.0108,0.0651,0.1684,0.2225,0.2243,0.2395,0.2361,0.2426,0.2182,0.2141,0.2102,0.2133,0.2498,0.2499,0.2812,0.2816,0.2819]}],[{"header":{"parameterUnit":"m.s-1","parameterCategory":2,"la1":30.2991,"la2":30.254,"lo1":-89.0895,"lo2":-89.0444,"dy":0.0017,"dx":0.0017,"nx":28,"ny":28,"refTime":"2024-04-08T09:00:00:Z","depth":"2","parameterNumber":2,"parameterNumberName":"U-component_of_CURRENTS"},"data":[0,0,0,0,0,0,0,0,0,0,0,0,0,0,0,0,0,0,0,0,0,0,0,0,0,0,0,0,0,0,0,0,0,0,0,0,0,0,0,0,0,0,0,0,0,0,0,0,0,0,0,0,0,0,0,0,0,0,-0.2081,-0.2081,0,-0.2095,-0.2094,-0.2094,-0.2061,-0.206,-0.2059,-0.2059,-0.2019,-0.2019,-0.2018,0,0,0,0,0,0,0,0,0,0,0,0,0,-0.1996,-0.1997,-0.2081,-0.2081,-0.2082,-0.2095,-0.2094,-0.2094,-0.2061,-0.206,-0.2059,-0.2058,-0.2019,-0.2019,-0.2018,0,0,0,0,0,0,0,0,0,0,0,0,0,-0.2019,-0.1998,-0.208,-0.2071,-0.207,-0.2095,-0.2094,-0.2094,-0.2061,-0.206,-0.2059,-0.2058,-0.202,-0.2019,-0.2018,-0.2031,0,0,-0.2016,-0.2016,0,0,0,0,0,0,0,0,-0.2017,-0.2021,-0.2071,-0.2071,-0.2071,-0.208,-0.205,-0.2072,-0.2061,-0.2059,-0.2059,-0.2058,-0.2039,-0.2036,-0.2034,-0.203,-0.2028,-0.2016,-0.2015,-0.2015,-0.2015,0,0,0,0,0,0,0,-0.2016,-0.202,-0.2081,-0.2072,-0.2072,-0.2056,-0.2058,-0.2054,-0.2048,-0.2059,-0.2058,-0.2068,-0.2037,-0.2035,-0.2033,-0.2027,-0.2016,-0.2015,-0.2015,-0.2014,-0.202,-0.202,0,0,0,0,0,0,-0.2028,-0.2019,-0.2081,-0.2082,-0.2047,-0.2059,-0.2061,-0.2073,-0.205,-0.2047,-0.2069,-0.2067,-0.2037,-0.2034,-0.2031,-0.2046,-0.2015,-0.2014,-0.2014,-0.2019,-0.202,-0.2021,0,0,0,0,0,0,-0.2026,-0.2033,-0.208,-0.2054,-0.206,-0.2062,-0.2076,-0.2074,-0.2075,-0.2059,-0.2054,-0.2072,-0.2036,-0.2032,-0.2037,-0.2044,-0.2014,-0.2013,-0.2018,-0.2019,-0.202,-0.2074,0,0,0,0,0,0,-0.2023,-0.2032,-0.2041,-0.2056,-0.2062,-0.2106,-0.2077,-0.2075,-0.2085,-0.2082,-0.206,-0.2055,-0.2035,-0.2039,-0.2037,-0.2042,-0.2013,-0.2018,-0.2019,-0.202,-0.2072,-0.2077,-0.2081,0,0,0,0,0,-0.202,-0.2042,-0.2042,-0.2049,-0.2076,-0.2108,-0.211,-0.2103,-0.2086,-0.2097,-0.2081,-0.2056,-0.2043,-0.2039,-0.2037,-0.2042,-0.2017,-0.2019,-0.202,-0.2069,-0.2076,-0.2081,0,0,0,0,0,0,-0.2008,-0.2041,-0.2041,-0.2071,-0.2093,-0.2105,-0.2112,-0.2111,-0.2107,-0.2097,-0.2072,-0.2068,-0.207,-0.2054,-0.205,-0.2046,-0.2023,-0.2024,-0.2062,-0.2067,-0.2072,-0.2066,-0.2012,0,0,0,0,0,-0.2013,-0.2033,-0.2065,-0.2085,-0.2098,-0.2105,-0.2115,-0.2117,-0.212,-0.2116,-0.2104,-0.2085,-0.2074,-0.207,-0.2059,-0.2066,-0.2058,-0.2064,-0.2069,-0.2073,-0.2066,-0.2071,-0.2076,-0.2025,-0.2025,-0.2025,0,0,-0.2012,-0.2033,-0.2043,-0.2083,-0.2092,-0.2117,-0.2107,-0.213,-0.2142,-0.2113,-0.2117,-0.2105,-0.2081,-0.2083,-0.2082,-0.207,-0.2088,-0.2075,-0.2079,-0.2069,-0.2073,-0.2078,-0.2083,-0.2026,-0.2026,-0.2026,0,0,-0.202,-0.2041,-0.2059,-0.2086,-0.2117,-0.2127,-0.2139,-0.216,-0.2159,-0.2174,-0.2149,-0.2144,-0.2134,-0.2118,-0.2106,-0.2132,-0.2113,-0.2128,-0.2147,-0.2153,-0.2157,-0.2161,-0.2176,-0.218,-0.213,-0.213,-0.213,0,-0.2016,-0.2044,-0.207,-0.2098,-0.2117,-0.2134,-0.2158,-0.2169,-0.2187,-0.2192,-0.218,-0.2168,-0.2146,-0.2145,-0.2145,-0.2142,-0.2147,-0.2129,-0.216,-0.2163,-0.2166,-0.218,-0.2184,-0.2132,-0.2132,-0.2132,-0.2132,0,-0.2038,-0.2063,-0.2078,-0.2115,-0.2143,-0.2168,-0.2197,-0.2216,-0.2217,-0.2225,-0.2233,-0.2213,-0.2202,-0.2196,-0.2174,-0.2182,-0.2182,-0.2168,-0.2147,-0.2174,-0.2188,-0.2191,-0.2136,-0.2135,-0.2135,-0.2134,0,0,-0.2009,-0.2079,-0.2079,-0.2102,-0.2153,-0.2178,-0.2208,-0.224,-0.2262,-0.2268,-0.2289,-0.2261,-0.2254,-0.2239,-0.222,-0.2218,-0.2242,-0.2201,-0.22,-0.2219,-0.2269,-0.2266,-0.2269,-0.2239,-0.2239,-0.224,-0.2278,0,-0.2008,-0.2059,-0.2094,-0.2136,-0.2164,-0.2202,-0.2235,-0.2269,-0.2288,-0.232,-0.2304,-0.2311,-0.2271,-0.2268,-0.2262,-0.2247,-0.225,-0.2233,-0.2236,-0.2236,-0.2232,-0.2273,-0.2066,-0.2082,-0.2281,-0.2281,-0.2282,0,-0.2001,-0.2042,-0.2083,-0.2154,-0.217,-0.2199,-0.2255,-0.2288,-0.2339,-0.2355,-0.2365,-0.2363,-0.2357,-0.2322,-0.231,-0.2305,-0.2285,-0.2273,-0.2274,-0.225,-0.2238,-0.2082,-0.208,-0.2287,-0.2287,-0.2286,-0.2286,0,-0.1954,-0.2024,-0.2054,-0.208,-0.2168,-0.2191,-0.223,-0.2291,-0.2327,-0.2374,-0.2405,-0.2407,-0.2409,-0.2388,-0.2354,-0.2337,-0.2353,-0.2328,-0.231,-0.2311,-0.2121,-0.2104,-0.232,-0.232,-0.232,-0.232,-0.232,0,-0.1931,-0.1957,-0.2037,-0.206,-0.2106,-0.2171,-0.2223,-0.2267,-0.2339,-0.2389,-0.241,-0.2442,-0.2424,-0.2432,-0.2391,-0.2369,-0.2382,-0.2321,-0.2321,-0.2138,-0.2123,-0.228,-0.2275,-0.2321,-0.2321,-0.2321,-0.2321,0,-0.1876,-0.1927,-0.1974,-0.2062,-0.2086,-0.2118,-0.2215,-0.2261,-0.2329,-0.2396,-0.2411,-0.2472,-0.2486,-0.2477,-0.2458,-0.2419,-0.2396,-0.2381,-0.2179,-0.2155,-0.2342,-0.2339,-0.2372,-0.2373,-0.2373,-0.2373,-0.2373,0,-0.1854,-0.187,-0.1959,-0.1985,-0.2023,-0.2085,-0.2135,-0.2232,-0.2286,-0.2408,-0.2436,-0.2491,-0.2517,-0.2514,-0.2434,-0.239,-0.242,-0.2194,-0.2119,-0.2351,-0.2348,-0.2344,-0.2341,-0.1891,-0.1887,-0.1884,-0.1881,0,-0.1808,-0.1836,-0.1877,-0.1933,-0.1982,-0.204,-0.2116,-0.2162,-0.2284,-0.2351,-0.2439,-0.2474,-0.2487,-0.2353,-0.2309,-0.2243,-0.2187,-0.2134,-0.2411,-0.1927,-0.1904,-0.1899,-0.191,-0.1853,-0.1856,-0.1858,-0.186,-0.1861,-0.176,-0.1771,-0.1817,-0.1864,-0.1917,-0.1957,-0.1972,-0.2065,-0.2133,-0.218,-0.2319,-0.2291,-0.2291,-0.2115,-0.2033,-0.1941,-0.2077,-0.1957,-0.1962,-0.1972,-0.1928,-0.1908,-0.1849,-0.1852,-0.1854,-0.1856,-0.1858,0,-0.1682,-0.1707,-0.1745,-0.1787,-0.1793,-0.1857,-0.193,-0.1895,-0.1925,-0.1991,-0.2031,-0.1853,-0.1803,-0.1797,-0.1617,-0.1616,-0.1548,-0.155,-0.1436,-0.1465,-0.1491,-0.1417,-0.1206,-0.1204,-0.1202,-0.1201,0,0,-0.164,-0.1634,-0.1654,-0.1631,-0.1661,-0.1613,-0.1621,-0.1584,-0.1582,-0.1513,-0.1498,-0.165,-0.1729,-0.145,-0.1405,-0.1272,-0.1343,-0.1211,-0.173,-0.162,-0.1643,-0.1722,-0.1644,0,0,0,0,0]},{"header":{"parameterUnit":"m.s-1","parameterCategory":2,"la1":30.2991,"la2":30.254,"lo1":-89.0895,"lo2":-89.0444,"dy":0.0017,"dx":0.0017,"nx":28,"ny":28,"refTime":"2024-04-08T09:00:00:Z","depth":"2","parameterNumber":3,"parameterNumberName":"V-component_of_CURRENTS"},"data":[0,0,0,0,0,0,0,0,0,0,0,0,0,0,0,0,0,0,0,0,0,0,0,0,0,0,0,0,0,0,0,0,0,0,0,0,0,0,0,0,0,0,0,0,0,0,0,0,0,0,0,0,0,0,0,0,0,0,-0.0138,-0.0137,0,-0.0072,-0.0071,-0.007,-0.0033,-0.0033,-0.0032,-0.0032,0.0033,0.0034,0.0036,0,0,0,0,0,0,0,0,0,0,0,0,0,-0.0191,-0.0191,-0.0138,-0.0137,-0.0136,-0.0072,-0.0071,-0.007,-0.0033,-0.0033,-0.0032,-0.0032,0.0032,0.0034,0.0036,0,0,0,0,0,0,0,0,0,0,0,0,0,-0.0151,-0.0191,-0.0138,-0.011,-0.0106,-0.0072,-0.0071,-0.007,-0.0033,-0.0033,-0.0032,-0.0032,0.0032,0.0034,0.0036,0.0047,0,0,0.0044,0.0045,0,0,0,0,0,0,0,0,-0.0154,-0.0149,-0.0115,-0.0111,-0.0108,-0.006,-0.0066,-0.0031,-0.0033,-0.0061,-0.0032,-0.0032,0.0002,0.0007,0.0018,0.005,0.0052,0.0044,0.0045,0.0046,0.0047,0,0,0,0,0,0,0,-0.0157,-0.0152,-0.0112,-0.0114,-0.011,-0.0086,-0.0081,-0.0059,-0.0032,-0.0059,-0.0056,-0.0048,0.0004,0.0016,0.002,0.0053,0.0044,0.0046,0.0047,0.0048,0.0128,0.0129,0,0,0,0,0,0,-0.0166,-0.0155,-0.0114,-0.011,-0.013,-0.0086,-0.0079,-0.0076,-0.0032,-0.0025,-0.0048,-0.0046,0.0012,0.0017,0.0022,0.0053,0.0046,0.0049,0.005,0.0128,0.0128,0.0129,0,0,0,0,0,0,-0.0168,-0.0164,-0.0117,-0.013,-0.0123,-0.0085,-0.0081,-0.0075,-0.0061,-0.0024,-0.0017,-0.0042,0.0012,0.0019,0.0044,0.0055,0.005,0.0052,0.0127,0.0128,0.0129,0.0103,0,0,0,0,0,0,-0.017,-0.0165,-0.0169,-0.0131,-0.0122,-0.0104,-0.0081,-0.0073,-0.0057,-0.0054,-0.0016,-0.001,0.0013,0.004,0.0047,0.0058,0.0054,0.0126,0.0127,0.0128,0.0103,0.0103,0.0103,0,0,0,0,0,-0.0172,-0.0184,-0.017,-0.0165,-0.0129,-0.0104,-0.0098,-0.007,-0.0057,-0.0056,-0.0025,-0.0011,0.0054,0.0043,0.005,0.0062,0.0125,0.0127,0.0128,0.0103,0.0103,0.0103,0,0,0,0,0,0,-0.0213,-0.018,-0.0164,-0.0167,-0.0139,-0.0098,-0.0098,-0.0073,-0.0047,-0.0045,-0.0008,0.0001,0.0029,0.0049,0.0036,0.0091,0.0094,0.0097,0.0072,0.0073,0.0073,0.0059,0.0056,0,0,0,0,0,-0.0224,-0.0224,-0.0184,-0.0186,-0.0176,-0.0135,-0.0123,-0.0101,-0.007,-0.0059,-0.003,0.0006,0.0041,0.0058,0.0086,0.011,0.0137,0.0126,0.0126,0.0126,0.0121,0.0173,0.0177,0.0134,0.0134,0.0134,0,0,-0.024,-0.0223,-0.0222,-0.0195,-0.0173,-0.0163,-0.0128,-0.0112,-0.0096,-0.0056,-0.0034,0.0002,0.0047,0.0078,0.0093,0.0095,0.0154,0.0128,0.0127,0.0123,0.0175,0.0179,0.0182,0.0135,0.0135,0.0135,0,0,-0.0276,-0.0257,-0.0268,-0.0246,-0.0215,-0.0189,-0.0186,-0.0144,-0.0119,-0.0091,-0.005,-0.0008,0.0033,0.0077,0.0103,0.0121,0.015,0.0131,0.0122,0.0172,0.0175,0.0179,0.0221,0.0229,0.0133,0.0133,0.0133,0,-0.0297,-0.0302,-0.0268,-0.0267,-0.0253,-0.0204,-0.0206,-0.0172,-0.0126,-0.01,-0.0091,-0.0001,0.0036,0.0094,0.0104,0.0121,0.0148,0.0115,0.0171,0.0175,0.0179,0.0221,0.023,0.0132,0.0132,0.0132,0.0132,0,-0.0332,-0.0334,-0.0339,-0.0321,-0.0302,-0.0296,-0.0243,-0.0219,-0.0183,-0.0141,-0.008,-0.0022,0.0033,0.0059,0.0086,0.0141,0.0151,0.0162,0.0166,0.0181,0.0226,0.0235,0.013,0.0131,0.0131,0.0131,0,0,-0.0382,-0.0369,-0.0369,-0.0371,-0.0328,-0.0319,-0.0286,-0.024,-0.0218,-0.0156,-0.0117,-0.0035,0.0004,0.0038,0.0088,0.0137,0.0195,0.0157,0.016,0.019,0.0301,0.0345,0.0359,0.0213,0.0215,0.0216,0.032,0,-0.0419,-0.0445,-0.0415,-0.0428,-0.0436,-0.0374,-0.0351,-0.0297,-0.0242,-0.0193,-0.01,-0.0053,-0.0004,0.0022,0.0083,0.0166,0.0218,0.0166,0.0288,0.0292,0.0323,0.0371,0.03,0.039,0.0329,0.0331,0.0332,0,-0.0457,-0.0473,-0.0498,-0.0487,-0.0482,-0.0476,-0.0427,-0.0397,-0.0302,-0.0256,-0.0175,-0.0107,-0.0009,0.0017,0.0174,0.0136,0.0213,0.0277,0.0283,0.0337,0.0354,0.0366,0.0409,0.0348,0.0347,0.0346,0.0345,0,-0.0518,-0.0525,-0.0553,-0.0547,-0.0526,-0.0516,-0.0498,-0.042,-0.0393,-0.0296,-0.0266,-0.0138,-0.0077,0.0041,0.019,0.0179,0.0355,0.0356,0.047,0.0474,0.0445,0.0444,0.0458,0.0458,0.0458,0.0458,0.0457,0,-0.0568,-0.0587,-0.0588,-0.0604,-0.0636,-0.0584,-0.0585,-0.054,-0.0468,-0.0437,-0.0311,-0.0257,-0.0069,0.0061,0.0184,0.0369,0.0357,0.0482,0.0512,0.0436,0.0433,0.0417,0.0411,0.0462,0.0461,0.046,0.0459,0,-0.0626,-0.0623,-0.0663,-0.0665,-0.0669,-0.069,-0.0668,-0.0663,-0.058,-0.0533,-0.0507,-0.0338,-0.0153,0.0041,0.0248,0.0363,0.0526,0.0587,0.0488,0.0506,0.0608,0.0599,0.0725,0.0728,0.073,0.0732,0.0733,0,-0.0658,-0.0687,-0.0728,-0.0765,-0.0771,-0.079,-0.0806,-0.0737,-0.0719,-0.0582,-0.0567,-0.0372,-0.0221,0.0115,0.0345,0.0591,0.0593,0.0663,0.0638,0.0623,0.0639,0.0627,0.0616,0.0586,0.0586,0.0586,0.0586,0,-0.0726,-0.074,-0.078,-0.0868,-0.0905,-0.0935,-0.094,-0.0941,-0.084,-0.0775,-0.0649,-0.0513,-0.0162,0.0109,0.0445,0.0568,0.0623,0.0676,0.0695,0.0535,0.0502,0.0514,0.0506,0.0588,0.0588,0.0588,0.0588,0.0588,-0.0775,-0.0829,-0.0893,-0.0972,-0.1021,-0.1067,-0.1095,-0.1061,-0.1025,-0.0902,-0.0743,-0.0525,-0.0212,0.0244,0.0483,0.0688,0.0691,0.0722,0.0717,0.0713,0.0683,0.0657,0.0766,0.0767,0.0768,0.0768,0.0769,0,-0.0837,-0.0904,-0.0993,-0.1082,-0.1156,-0.1153,-0.1177,-0.1169,-0.1127,-0.0964,-0.0807,-0.0485,-0.0143,0.0177,0.0505,0.0727,0.0685,0.0749,0.0648,0.0645,0.0643,0.0606,0.0671,0.0671,0.0672,0.0672,0,0,-0.0872,-0.0978,-0.1033,-0.1182,-0.124,-0.1311,-0.1326,-0.1281,-0.1174,-0.1021,-0.0848,-0.0571,-0.0158,0.0062,0.0342,0.0513,0.0514,0.0516,0.0566,0.0408,0.0403,0.0595,0.0533,0,0,0,0,0]}],[{"header":{"parameterUnit":"m.s-1","parameterCategory":2,"la1":30.2991,"la2":30.254,"lo1":-89.0895,"lo2":-89.0444,"dy":0.0017,"dx":0.0017,"nx":28,"ny":28,"refTime":"2024-04-08T09:00:00:Z","depth":"4","parameterNumber":2,"parameterNumberName":"U-component_of_CURRENTS"},"data":[0,0,0,0,0,0,0,0,0,0,0,0,0,0,0,0,0,0,0,0,0,0,0,0,0,0,0,0,0,0,0,0,0,0,0,0,0,0,0,0,0,0,0,0,0,0,0,0,0,0,0,0,0,0,0,0,0,0,-0.1367,-0.1368,0,-0.1419,-0.142,-0.142,-0.1443,-0.1443,-0.1443,-0.1444,-0.1466,-0.1466,-0.1467,0,0,0,0,0,0,0,0,0,0,0,0,0,-0.1258,-0.126,-0.1367,-0.1368,-0.1369,-0.1419,-0.142,-0.142,-0.1443,-0.1443,-0.1443,-0.1444,-0.1466,-0.1466,-0.1467,0,0,0,0,0,0,0,0,0,0,0,0,0,-0.1304,-0.1261,-0.1366,-0.1389,-0.1391,-0.1419,-0.142,-0.142,-0.1443,-0.1443,-0.1444,-0.1444,-0.1466,-0.1466,-0.1467,-0.1463,0,0,-0.1468,-0.1469,0,0,0,0,0,0,0,0,-0.1302,-0.1308,-0.1384,-0.1387,-0.139,-0.1428,-0.139,-0.1434,-0.1443,-0.142,-0.1444,-0.1444,-0.1453,-0.1454,-0.1459,-0.1464,-0.1465,-0.1469,-0.1469,-0.1469,-0.1469,0,0,0,0,0,0,0,-0.1298,-0.1305,-0.1384,-0.1386,-0.1389,-0.1387,-0.1394,-0.1398,-0.143,-0.1422,-0.1424,-0.1436,-0.1454,-0.1458,-0.1459,-0.1465,-0.1469,-0.1469,-0.1469,-0.147,-0.1518,-0.1519,0,0,0,0,0,0,-0.1301,-0.1303,-0.1382,-0.1386,-0.135,-0.1389,-0.1396,-0.1413,-0.1431,-0.1435,-0.1435,-0.1437,-0.1457,-0.1459,-0.146,-0.1514,-0.1469,-0.147,-0.147,-0.1517,-0.1518,-0.1519,0,0,0,0,0,0,-0.1298,-0.1307,-0.138,-0.1348,-0.1357,-0.1391,-0.1409,-0.1414,-0.1445,-0.1442,-0.1445,-0.1465,-0.1457,-0.1459,-0.1491,-0.1513,-0.147,-0.147,-0.1516,-0.1517,-0.1519,-0.1585,0,0,0,0,0,0,-0.1295,-0.1306,-0.1327,-0.1348,-0.136,-0.1418,-0.1409,-0.1414,-0.1451,-0.1454,-0.1468,-0.1469,-0.1458,-0.1491,-0.1492,-0.1513,-0.1471,-0.1515,-0.1516,-0.1518,-0.1581,-0.1588,-0.1594,0,0,0,0,0,-0.1291,-0.1317,-0.1328,-0.1339,-0.1385,-0.1419,-0.1425,-0.1446,-0.1453,-0.1474,-0.1485,-0.147,-0.1502,-0.1493,-0.1494,-0.1515,-0.1514,-0.1516,-0.1518,-0.1579,-0.1587,-0.1594,0,0,0,0,0,0,-0.1282,-0.1323,-0.1335,-0.1374,-0.1405,-0.1425,-0.1448,-0.1463,-0.1489,-0.1496,-0.1489,-0.1491,-0.1523,-0.1512,-0.1501,-0.1533,-0.1503,-0.1505,-0.1548,-0.1556,-0.1562,-0.1553,-0.1471,0,0,0,0,0,-0.129,-0.1321,-0.1357,-0.1388,-0.1406,-0.1432,-0.1452,-0.147,-0.1492,-0.1505,-0.1517,-0.1523,-0.1527,-0.1539,-0.154,-0.1565,-0.1555,-0.1577,-0.1583,-0.1589,-0.1582,-0.1593,-0.1599,-0.1526,-0.1526,-0.1526,0,0,-0.1296,-0.1322,-0.1341,-0.1389,-0.1411,-0.1442,-0.1445,-0.1486,-0.1513,-0.1502,-0.1546,-0.1549,-0.1539,-0.1564,-0.1577,-0.1563,-0.1608,-0.1592,-0.1597,-0.1586,-0.1595,-0.1603,-0.1609,-0.1528,-0.1527,-0.1527,0,0,-0.1309,-0.1346,-0.1372,-0.1403,-0.145,-0.1467,-0.1486,-0.1526,-0.1548,-0.1589,-0.1582,-0.1602,-0.1621,-0.1616,-0.1613,-0.1656,-0.164,-0.166,-0.169,-0.1702,-0.1708,-0.1713,-0.1726,-0.1732,-0.1666,-0.1666,-0.1667,0,-0.1314,-0.1351,-0.1385,-0.1417,-0.1445,-0.1481,-0.1513,-0.1541,-0.1588,-0.1608,-0.1612,-0.1643,-0.1639,-0.1658,-0.167,-0.167,-0.1676,-0.1664,-0.1711,-0.1715,-0.1719,-0.1731,-0.1737,-0.167,-0.1669,-0.1669,-0.1669,0,-0.1337,-0.1378,-0.1397,-0.1448,-0.1484,-0.152,-0.1563,-0.1604,-0.1635,-0.1658,-0.1701,-0.1702,-0.1717,-0.1722,-0.1708,-0.1736,-0.1733,-0.1717,-0.1692,-0.1731,-0.1741,-0.1746,-0.1675,-0.1674,-0.1673,-0.1672,0,0,-0.1309,-0.1397,-0.1403,-0.1436,-0.1504,-0.1534,-0.1588,-0.1639,-0.1679,-0.172,-0.1765,-0.1771,-0.178,-0.1775,-0.177,-0.178,-0.1817,-0.1766,-0.1765,-0.178,-0.1854,-0.1749,-0.1744,-0.1819,-0.182,-0.182,-0.1856,0,-0.1313,-0.1374,-0.1419,-0.148,-0.1514,-0.1572,-0.162,-0.1676,-0.1721,-0.1777,-0.1789,-0.1824,-0.1798,-0.1816,-0.1822,-0.1818,-0.183,-0.1809,-0.1811,-0.1811,-0.1714,-0.1745,-0.1823,-0.1859,-0.186,-0.1861,-0.1861,0,-0.1306,-0.1353,-0.1414,-0.1503,-0.1525,-0.1571,-0.1657,-0.1706,-0.1784,-0.1822,-0.186,-0.1878,-0.19,-0.1874,-0.1886,-0.1879,-0.1868,-0.1861,-0.1862,-0.1738,-0.1713,-0.1807,-0.1869,-0.1868,-0.1868,-0.1867,-0.1867,0,-0.1252,-0.1343,-0.1392,-0.1424,-0.1531,-0.1575,-0.1632,-0.1719,-0.1768,-0.1851,-0.1895,-0.1928,-0.1952,-0.1946,-0.1928,-0.1917,-0.1941,-0.1922,-0.1818,-0.1812,-0.1868,-0.1861,-0.1926,-0.1926,-0.1926,-0.1926,-0.1925,0,-0.1221,-0.1264,-0.1379,-0.1407,-0.1477,-0.1559,-0.1638,-0.17,-0.1796,-0.1852,-0.1911,-0.1945,-0.1972,-0.1988,-0.196,-0.19,-0.1965,-0.182,-0.1809,-0.1897,-0.1894,-0.1872,-0.1865,-0.1927,-0.1927,-0.1926,-0.1926,0,-0.1151,-0.1226,-0.1292,-0.1413,-0.1454,-0.1504,-0.1636,-0.169,-0.1788,-0.1863,-0.1891,-0.1972,-0.1984,-0.2,-0.1998,-0.1928,-0.189,-0.1853,-0.196,-0.1956,-0.1749,-0.1745,-0.1737,-0.1734,-0.1731,-0.1728,-0.1726,0,-0.112,-0.1147,-0.1279,-0.1323,-0.1383,-0.1476,-0.1539,-0.1664,-0.1718,-0.1856,-0.1875,-0.1942,-0.1975,-0.1892,-0.1915,-0.1869,-0.1837,-0.1815,-0.1757,-0.1737,-0.1728,-0.1729,-0.1729,-0.1721,-0.172,-0.172,-0.1719,0,-0.1054,-0.1111,-0.1167,-0.1253,-0.1329,-0.1406,-0.1503,-0.1533,-0.1671,-0.1787,-0.1811,-0.1814,-0.1834,-0.1817,-0.18,-0.1761,-0.1826,-0.1783,-0.1788,-0.1733,-0.1718,-0.1712,-0.1716,-0.1709,-0.171,-0.1711,-0.1712,0,-0.1003,-0.1022,-0.1097,-0.1163,-0.1251,-0.1292,-0.1367,-0.1435,-0.1503,-0.1664,-0.1669,-0.1737,-0.1823,-0.1762,-0.1743,-0.1702,-0.1662,-0.1596,-0.161,-0.1621,-0.1562,-0.1524,-0.1443,0,0,0,0,0,-0.0941,-0.0948,-0.1001,-0.1064,-0.1147,-0.119,-0.1321,-0.14,-0.1545,-0.1524,-0.1593,-0.1604,-0.1588,-0.1621,-0.1547,-0.1671,-0.1657,-0.1578,-0.1585,-0.1651,-0.1663,-0.1601,0,0,0,0,0,0,-0.0898,-0.0937,-0.0958,-0.0959,-0.0979,-0.1052,-0.1124,-0.123,-0.1232,-0.1383,-0.138,-0.1497,-0.1496,-0.1593,-0.1507,-0.1517,-0.1487,-0.1632,-0.1628,-0.1644,-0.1655,-0.1665,-0.1605,0,0,0,0,0]},{"header":{"parameterUnit":"m.s-1","parameterCategory":2,"la1":30.2991,"la2":30.254,"lo1":-89.0895,"lo2":-89.0444,"dy":0.0017,"dx":0.0017,"nx":28,"ny":28,"refTime":"2024-04-08T09:00:00:Z","depth":"4","parameterNumber":3,"parameterNumberName":"V-component_of_CURRENTS"},"data":[0,0,0,0,0,0,0,0,0,0,0,0,0,0,0,0,0,0,0,0,0,0,0,0,0,0,0,0,0,0,0,0,0,0,0,0,0,0,0,0,0,0,0,0,0,0,0,0,0,0,0,0,0,0,0,0,0,0,-0.0142,-0.0142,0,-0.0099,-0.0098,-0.0098,-0.0073,-0.0073,-0.0073,-0.0073,-0.0027,-0.0026,-0.0025,0,0,0,0,0,0,0,0,0,0,0,0,0,-0.0177,-0.0176,-0.0142,-0.0142,-0.0141,-0.0099,-0.0098,-0.0098,-0.0073,-0.0073,-0.0073,-0.0073,-0.0027,-0.0026,-0.0025,0,0,0,0,0,0,0,0,0,0,0,0,0,-0.015,-0.0176,-0.0142,-0.0124,-0.0122,-0.0099,-0.0098,-0.0097,-0.0073,-0.0073,-0.0073,-0.0073,-0.0028,-0.0026,-0.0024,-0.0016,0,0,-0.0019,-0.0018,0,0,0,0,0,0,0,0,-0.0152,-0.0149,-0.0127,-0.0125,-0.0123,-0.0091,-0.0093,-0.007,-0.0073,-0.0091,-0.0073,-0.0072,-0.0048,-0.0045,-0.0037,-0.0014,-0.0012,-0.0019,-0.0018,-0.0017,-0.0017,0,0,0,0,0,0,0,-0.0154,-0.015,-0.0125,-0.0127,-0.0124,-0.0108,-0.0105,-0.0089,-0.0071,-0.009,-0.0088,-0.0083,-0.0047,-0.0039,-0.0036,-0.0011,-0.0019,-0.0017,-0.0016,-0.0016,0.004,0.004,0,0,0,0,0,0,-0.0161,-0.0152,-0.0126,-0.0124,-0.0137,-0.0108,-0.0104,-0.0101,-0.0071,-0.0066,-0.0083,-0.0082,-0.0042,-0.0038,-0.0034,-0.0013,-0.0017,-0.0016,-0.0015,0.0039,0.004,0.004,0,0,0,0,0,0,-0.0162,-0.0159,-0.0128,-0.0137,-0.0132,-0.0108,-0.0105,-0.0101,-0.0092,-0.0066,-0.0061,-0.0079,-0.0041,-0.0036,-0.002,-0.0011,-0.0015,-0.0013,0.0039,0.0039,0.004,0.0023,0,0,0,0,0,0,-0.0163,-0.016,-0.0164,-0.0138,-0.0132,-0.0121,-0.0105,-0.01,-0.0089,-0.0087,-0.0061,-0.0057,-0.0041,-0.0023,-0.0019,-0.0009,-0.0012,0.0038,0.0039,0.004,0.0023,0.0023,0.0023,0,0,0,0,0,-0.0164,-0.0173,-0.0164,-0.0161,-0.0137,-0.0121,-0.0117,-0.0099,-0.0089,-0.009,-0.0069,-0.0057,-0.0014,-0.0022,-0.0016,-0.0006,0.0038,0.0039,0.004,0.0023,0.0023,0.0023,0,0,0,0,0,0,-0.0191,-0.0171,-0.016,-0.0163,-0.0145,-0.0118,-0.0119,-0.0101,-0.0084,-0.0083,-0.0056,-0.005,-0.0031,-0.0017,-0.0026,0.0013,0.0016,0.0018,0.0001,0.0001,0.0001,-0.0008,-0.001,0,0,0,0,0,-0.0199,-0.0201,-0.0175,-0.0178,-0.0171,-0.0144,-0.0136,-0.0121,-0.0101,-0.0093,-0.0074,-0.0049,-0.0023,-0.0011,0.0008,0.0026,0.0049,0.0038,0.0038,0.0038,0.0034,0.0079,0.0083,0.0043,0.0043,0.0043,0,0,-0.021,-0.0199,-0.0201,-0.0183,-0.017,-0.0166,-0.0139,-0.0131,-0.0121,-0.0091,-0.0079,-0.0052,-0.0019,0.0003,0.0013,0.0015,0.0062,0.0039,0.0038,0.0035,0.0081,0.0084,0.0088,0.0044,0.0044,0.0044,0,0,-0.0237,-0.0225,-0.0235,-0.0222,-0.0203,-0.0186,-0.0184,-0.0157,-0.014,-0.0122,-0.0092,-0.006,-0.0032,0.0001,0.0021,0.0033,0.0058,0.004,0.0034,0.0078,0.0081,0.0084,0.012,0.0126,0.0042,0.0042,0.0042,0,-0.0252,-0.0259,-0.0236,-0.0239,-0.0232,-0.0197,-0.0203,-0.0179,-0.0148,-0.0131,-0.0124,-0.0058,-0.003,0.0015,0.0022,0.0034,0.0057,0.003,0.0077,0.0081,0.0085,0.012,0.0128,0.0041,0.0041,0.0041,0.0041,0,-0.028,-0.0285,-0.0291,-0.0283,-0.0272,-0.0272,-0.0236,-0.0221,-0.0196,-0.0166,-0.0121,-0.0075,-0.0035,-0.0013,0.0008,0.0053,0.0061,0.007,0.0075,0.0088,0.0124,0.0132,0.004,0.004,0.004,0.0041,0,0,-0.0315,-0.0313,-0.0315,-0.0323,-0.0295,-0.0294,-0.0273,-0.0243,-0.023,-0.0183,-0.0156,-0.0091,-0.0058,-0.0032,0.0009,0.0052,0.0104,0.0069,0.0071,0.0099,0.0196,0.0174,0.0182,0.0121,0.0122,0.0123,0.0211,0,-0.0345,-0.0372,-0.0353,-0.0374,-0.0384,-0.0343,-0.0331,-0.0294,-0.0254,-0.022,-0.0144,-0.0109,-0.0066,-0.0046,0.0009,0.0079,0.0125,0.0079,0.0183,0.0186,0.0162,0.019,0.0127,0.0217,0.0219,0.022,0.0221,0,-0.0375,-0.0391,-0.042,-0.0425,-0.0425,-0.0427,-0.0401,-0.0383,-0.0313,-0.0278,-0.0213,-0.0157,-0.0075,-0.005,0.0086,0.0054,0.012,0.0176,0.0181,0.0171,0.018,0.0203,0.0236,0.0235,0.0234,0.0233,0.0232,0,-0.0417,-0.0436,-0.0466,-0.0466,-0.0462,-0.0464,-0.0457,-0.0403,-0.0388,-0.0315,-0.0293,-0.0185,-0.0133,-0.003,0.0097,0.009,0.0239,0.0244,0.0291,0.029,0.0289,0.0285,0.0334,0.0334,0.0333,0.0333,0.0333,0,-0.0451,-0.0476,-0.0494,-0.051,-0.0548,-0.0518,-0.0532,-0.0502,-0.0453,-0.0432,-0.0331,-0.0289,-0.0127,-0.0018,0.0089,0.0219,0.0239,0.0294,0.0314,0.028,0.0274,0.0295,0.029,0.0336,0.0336,0.0335,0.0335,0,-0.0485,-0.0495,-0.0539,-0.0559,-0.0572,-0.0597,-0.0601,-0.0603,-0.0546,-0.0514,-0.0493,-0.0359,-0.0215,-0.0052,0.0125,0.0201,0.0327,0.0366,0.0319,0.0334,0.035,0.0343,0.0422,0.0422,0.0422,0.0422,0.0422,0,-0.0503,-0.0531,-0.0589,-0.0629,-0.0645,-0.0677,-0.0699,-0.0659,-0.065,-0.0555,-0.0542,-0.0397,-0.0292,-0.0054,0.0111,0.032,0.0344,0.0401,0.0378,0.0349,0.0361,0.0353,0.0346,0.0422,0.0422,0.0422,0.0422,0,-0.0542,-0.0567,-0.0607,-0.0693,-0.0739,-0.0782,-0.08,-0.0798,-0.0733,-0.0685,-0.0575,-0.0431,-0.0265,-0.0068,0.0103,0.0249,0.036,0.0402,0.0403,0.0381,0.035,0.036,0.0353,0.0423,0.0423,0.0423,0.0423,0,-0.0572,-0.0615,-0.0677,-0.0747,-0.0815,-0.086,-0.0864,-0.0835,-0.081,-0.0686,-0.0653,-0.0455,-0.0326,-0.0105,0.0048,0.0197,0.0224,0.0251,0.026,0.0262,0.0188,0.0124,0.0147,0,0,0,0,0,-0.0595,-0.0649,-0.0727,-0.0801,-0.0868,-0.0903,-0.0919,-0.0902,-0.0835,-0.0769,-0.0702,-0.0543,-0.029,-0.0177,-0.0033,0.0032,0.0237,0.0202,0.0268,0.0423,0.0423,0.0361,0,0,0,0,0,0,-0.0613,-0.0689,-0.0731,-0.0829,-0.0885,-0.0949,-0.0962,-0.092,-0.0867,-0.0779,-0.0644,-0.0535,-0.0291,-0.0373,-0.0039,0.001,0.0063,0.0335,0.0338,0.0424,0.0423,0.0423,0.036,0,0,0,0,0]}]]